When you browse on this site, cookies collect data to enhance your experience and personalize the content and advertising you see.
Visit our Privacy Policy to learn more. By continuing to use the site, you agree to this use of cookies and data.
  • In Romania
  • List of Countries
  • For 7 days
  • Water Temperature
  • Satellite Maps
  • Weather Map
  • Weather Widgets
  • user-avatar
    Login

    Hourly Weather Menton

    Today, 19 April, Friday

    Time Temperature Precipitation Wind Pressure Humidity
    00:00 +15°C° 0 mm 4 mps 763 mmHg 67%
    01:00 +16°C° 0 mm 5 mps 763 mmHg 68%
    02:00 +15°C° 0 mm 5 mps 763 mmHg 66%
    03:00 +15°C° 0 mm 5 mps 763 mmHg 64%
    04:00 +14°C° 0 mm 5 mps 763 mmHg 62%
    05:00 +14°C° 0 mm 5 mps 764 mmHg 59%
    06:00 +15°C° 0 mm 5 mps 764 mmHg 57%
    07:00 +15°C° 0 mm 5 mps 764 mmHg 54%
    08:00 +16°C° 0 mm 5 mps 764 mmHg 49%
    09:00 +19°C° 0 mm 5 mps 765 mmHg 44%
    10:00 +21°C° 0 mm 5 mps 765 mmHg 40%
    11:00 +21°C° 0 mm 5 mps 765 mmHg 39%
    12:00 +22°C° 0 mm 6 mps 765 mmHg 38%
    13:00 +23°C° 0 mm 6 mps 765 mmHg 37%
    14:00 +23°C° 0 mm 6 mps 765 mmHg 39%
    15:00 +22°C° 0 mm 5 mps 764 mmHg 41%
    16:00 +22°C° 0 mm 5 mps 764 mmHg 43%
    17:00 +21°C° 0 mm 5 mps 764 mmHg 49%
    18:00 +20°C° 0 mm 4 mps 764 mmHg 55%
    19:00 +18°C° 0 mm 4 mps 764 mmHg 61%
    20:00 +17°C° 0 mm 4 mps 765 mmHg 61%
    21:00 +17°C° 0 mm 4 mps 765 mmHg 60%
    22:00 +15°C° 0 mm 4 mps 766 mmHg 60%
    23:00 +15°C° 0 mm 4 mps 765 mmHg 57%

    Tomorrow, 20 April, Saturday

    Time Temperature Precipitation Wind Pressure Humidity
    00:00 +14°C° 0 mm 4 mps 765 mmHg 54%
    01:00 +14°C° 0 mm 4 mps 765 mmHg 51%
    02:00 +14°C° 0 mm 4 mps 765 mmHg 51%
    03:00 +14°C° 0 mm 4 mps 765 mmHg 52%
    04:00 +13°C° 0 mm 4 mps 764 mmHg 53%
    05:00 +14°C° 0 mm 4 mps 764 mmHg 53%
    06:00 +14°C° 0 mm 4 mps 764 mmHg 53%
    07:00 +15°C° 0 mm 4 mps 764 mmHg 53%
    08:00 +16°C° 0 mm 5 mps 764 mmHg 49%
    09:00 +19°C° 0 mm 5 mps 764 mmHg 46%
    10:00 +21°C° 0 mm 5 mps 764 mmHg 42%
    11:00 +22°C° 0 mm 5 mps 763 mmHg 40%
    12:00 +22°C° 0 mm 6 mps 763 mmHg 38%
    13:00 +23°C° 0 mm 6 mps 763 mmHg 36%
    14:00 +23°C° 0 mm 6 mps 762 mmHg 37%
    15:00 +23°C° 0 mm 6 mps 762 mmHg 38%
    16:00 +23°C° 0 mm 6 mps 762 mmHg 38%
    17:00 +21°C° 0 mm 6 mps 761 mmHg 42%
    18:00 +20°C° 0 mm 5 mps 761 mmHg 46%
    19:00 +19°C° 0 mm 5 mps 761 mmHg 50%
    20:00 +19°C° 0 mm 5 mps 762 mmHg 50%
    21:00 +17°C° 0 mm 5 mps 762 mmHg 50%
    22:00 +17°C° 0 mm 6 mps 762 mmHg 50%
    23:00 +16°C° 0 mm 6 mps 762 mmHg 49%

    Day after tomorrow, 21 April, Sunday

    Time Temperature Precipitation Wind Pressure Humidity
    00:00 +16°C° 0 mm 6 mps 762 mmHg 49%
    01:00 +16°C° 0 mm 5 mps 761 mmHg 48%
    02:00 +16°C° 0 mm 5 mps 761 mmHg 48%
    03:00 +16°C° 0 mm 5 mps 761 mmHg 48%
    04:00 +16°C° 0 mm 5 mps 760 mmHg 48%
    05:00 +16°C° 0 mm 5 mps 760 mmHg 49%
    06:00 +16°C° 0 mm 5 mps 760 mmHg 50%
    07:00 +16°C° 0 mm 5 mps 760 mmHg 51%
    08:00 +17°C° 0.1 mm 5 mps 760 mmHg 51%
    09:00 +18°C° 0.1 mm 4 mps 760 mmHg 50%
    10:00 +19°C° 0.1 mm 4 mps 759 mmHg 50%
    11:00 +19°C° 0.1 mm 4 mps 759 mmHg 49%
    12:00 +20°C° 0.1 mm 5 mps 759 mmHg 47%
    13:00 +21°C° 0.1 mm 5 mps 759 mmHg 46%
    14:00 +21°C° 0 mm 5 mps 758 mmHg 45%
    15:00 +21°C° 0 mm 5 mps 757 mmHg 45%
    16:00 +21°C° 0 mm 5 mps 757 mmHg 44%
    17:00 +20°C° 0 mm 5 mps 757 mmHg 47%
    18:00 +20°C° 0 mm 5 mps 756 mmHg 49%
    19:00 +19°C° 0 mm 5 mps 756 mmHg 52%
    20:00 +17°C° 0 mm 6 mps 756 mmHg 53%
    21:00 +16°C° 0 mm 6 mps 756 mmHg 54%
    22:00 +16°C° 0 mm 6 mps 756 mmHg 55%
    23:00 +16°C° 0 mm 6 mps 756 mmHg 53%

    22 April, Monday

    Time Temperature Precipitation Wind Pressure Humidity
    00:00 +15°C° 0 mm 7 mps 755 mmHg 51%
    01:00 +15°C° 0 mm 7 mps 754 mmHg 49%
    02:00 +15°C° 0 mm 7 mps 754 mmHg 49%
    03:00 +15°C° 0 mm 7 mps 753 mmHg 49%
    04:00 +15°C° 0 mm 8 mps 752 mmHg 49%
    05:00 +15°C° 0 mm 8 mps 752 mmHg 50%
    06:00 +15°C° 0 mm 8 mps 751 mmHg 50%
    07:00 +16°C° 0 mm 8 mps 751 mmHg 50%
    08:00 +17°C° 0 mm 8 mps 751 mmHg 46%
    09:00 +20°C° 0 mm 8 mps 750 mmHg 43%
    10:00 +21°C° 0 mm 8 mps 750 mmHg 39%
    11:00 +22°C° 0 mm 8 mps 749 mmHg 38%
    12:00 +22°C° 0 mm 8 mps 749 mmHg 38%
    13:00 +23°C° 0 mm 8 mps 748 mmHg 37%
    14:00 +22°C° 0 mm 8 mps 747 mmHg 40%
    15:00 +22°C° 0 mm 8 mps 747 mmHg 42%
    16:00 +21°C° 0 mm 8 mps 746 mmHg 44%
    17:00 +20°C° 0.3 mm 8 mps 746 mmHg 51%
    18:00 +17°C° 0.3 mm 8 mps 746 mmHg 57%
    19:00 +16°C° 0.3 mm 8 mps 746 mmHg 64%
    20:00 +16°C° 0.3 mm 7 mps 746 mmHg 65%
    21:00 +16°C° 0.3 mm 7 mps 746 mmHg 67%
    22:00 +15°C° 0.3 mm 7 mps 746 mmHg 68%
    23:00 +15°C° 0.4 mm 6 mps 746 mmHg 69%

    23 April, Tuesday

    Time Temperature Precipitation Wind Pressure Humidity
    00:00 +15°C° 0.4 mm 6 mps 745 mmHg 70%
    01:00 +15°C° 0.4 mm 5 mps 745 mmHg 71%
    02:00 +14°C° 0.1 mm 5 mps 744 mmHg 72%
    03:00 +14°C° 0.1 mm 5 mps 744 mmHg 72%
    04:00 +14°C° 0.1 mm 5 mps 744 mmHg 73%
    05:00 +14°C° 0.1 mm 4 mps 744 mmHg 73%
    06:00 +14°C° 0.1 mm 3 mps 744 mmHg 74%
    07:00 +15°C° 0.1 mm 2 mps 744 mmHg 74%
    08:00 +16°C° 0.1 mm 2 mps 745 mmHg 71%
    09:00 +17°C° 0.1 mm 2 mps 745 mmHg 68%
    10:00 +18°C° 0.1 mm 2 mps 746 mmHg 65%
    11:00 +19°C° 0 mm 3 mps 746 mmHg 63%
    12:00 +20°C° 0 mm 4 mps 746 mmHg 61%
    13:00 +21°C° 0 mm 4 mps 747 mmHg 59%
    14:00 +20°C° 0 mm 4 mps 747 mmHg 62%
    15:00 +19°C° 0 mm 3 mps 747 mmHg 65%
    16:00 +19°C° 0 mm 3 mps 747 mmHg 68%
    17:00 +18°C° 0 mm 3 mps 748 mmHg 72%
    18:00 +17°C° 0 mm 2 mps 749 mmHg 76%
    19:00 +18°C° 0 mm 1 mps 749 mmHg 80%
    20:00 +16°C° 0 mm 2 mps 750 mmHg 80%
    21:00 +16°C° 0 mm 2 mps 751 mmHg 80%
    22:00 +15°C° 0 mm 2 mps 752 mmHg 80%
    23:00 +15°C° 0 mm 2 mps 753 mmHg 78%

    24 April, Wednesday

    Time Temperature Precipitation Wind Pressure Humidity
    00:00 +15°C° 0 mm 1 mps 753 mmHg 75%
    01:00 +15°C° 0 mm 1 mps 753 mmHg 72%
    02:00 +15°C° 0 mm 1 mps 753 mmHg 76%
    03:00 +14°C° 0 mm 1 mps 754 mmHg 79%
    04:00 +14°C° 0 mm 1 mps 754 mmHg 83%
    05:00 +15°C° 0 mm 1 mps 754 mmHg 81%
    06:00 +15°C° 0 mm 1 mps 755 mmHg 80%
    07:00 +16°C° 0 mm 2 mps 755 mmHg 78%
    08:00 +17°C° 0 mm 2 mps 755 mmHg 72%
    09:00 +19°C° 0 mm 3 mps 755 mmHg 66%
    10:00 +20°C° 0 mm 3 mps 755 mmHg 60%
    11:00 +21°C° 0 mm 4 mps 755 mmHg 58%
    12:00 +22°C° 0 mm 5 mps 755 mmHg 56%
    13:00 +23°C° 0 mm 5 mps 755 mmHg 54%
    14:00 +23°C° 0 mm 6 mps 755 mmHg 54%
    15:00 +23°C° 0 mm 6 mps 755 mmHg 55%
    16:00 +23°C° 0 mm 6 mps 754 mmHg 55%
    17:00 +22°C° 0 mm 6 mps 754 mmHg 59%
    18:00 +21°C° 0 mm 5 mps 754 mmHg 64%
    19:00 +20°C° 0 mm 5 mps 754 mmHg 68%
    20:00 +19°C° 0 mm 5 mps 754 mmHg 69%
    21:00 +19°C° 0 mm 6 mps 755 mmHg 70%
    22:00 +19°C° 0 mm 6 mps 755 mmHg 71%
    23:00 +19°C° 0 mm 6 mps 755 mmHg 71%
    Show more